| time (UTC) | temp F | wind direction | speed knots | gust knots | rain 1hr in | rain 24hr in | rain mn in | humidity % | barometer mb |
| 20260507183603 | 56 | 101 | 5.2 | 8.7 | 0.00 | 0.00 | 0.00 | 66 | 1012.4 |
| 20260507182703 | 57 | 109 | 4.3 | 9.6 | 0.00 | 0.00 | 0.00 | 65 | 1012.4 |
| 20260507181803 | 57 | 107 | 4.3 | 11.3 | 0.00 | 0.00 | 0.00 | 65 | 1012.4 |
| 20260507180903 | 57 | 112 | 5.2 | 11.3 | 0.00 | 0.00 | 0.00 | 63 | 1012.3 |
| 20260507180003 | 57 | 99 | 4.3 | 8.7 | 0.00 | 0.00 | 0.00 | 62 | 1012.2 |
| 20260507175403 | 58 | 96 | 5.2 | 8.7 | 0.00 | 0.00 | 0.00 | 60 | 1012.1 |
| 20260507174503 | 58 | 104 | 4.3 | 8.7 | 0.00 | 0.00 | 0.00 | 58 | 1012.0 |
| 20260507173603 | 58 | 97 | 4.3 | 9.6 | 0.00 | 0.00 | 0.00 | 58 | 1012.1 |
| 20260507172703 | 59 | 132 | 4.3 | 8.7 | 0.00 | 0.00 | 0.00 | 57 | 1012.0 |
| 20260507171803 | 59 | 119 | 3.5 | 8.7 | 0.00 | 0.00 | 0.00 | 55 | 1012.1 |
| 20260507170903 | 58 | 125 | 3.5 | 7.8 | 0.00 | 0.00 | 0.00 | 56 | 1012.1 |
| 20260507170003 | 58 | 124 | 3.5 | 7.0 | 0.00 | 0.00 | 0.00 | 56 | 1012.2 |
| 20260507165403 | 58 | 139 | 3.5 | 7.0 | 0.00 | 0.00 | 0.00 | 54 | 1012.2 |
| 20260507164503 | 58 | 123 | 2.6 | 7.0 | 0.00 | 0.00 | 0.00 | 56 | 1012.2 |
| 20260507163624 | 58 | 99 | 3.5 | 7.8 | 0.00 | 0.00 | 0.00 | 56 | 1012.2 |
| 20260507162724 | 59 | 127 | 2.6 | 7.8 | 0.00 | 0.00 | 0.00 | 53 | 1012.2 |
| 20260507161824 | 58 | 106 | 3.5 | 7.8 | 0.00 | 0.00 | 0.00 | 53 | 1012.2 |
| 20260507160924 | 59 | 105 | 3.5 | 8.7 | 0.00 | 0.00 | 0.00 | 53 | 1012.2 |
| 20260507160024 | 59 | 121 | 3.5 | 7.0 | 0.00 | 0.00 | 0.00 | 54 | 1012.2 |
| 20260507155403 | 60 | 96 | 4.3 | 8.7 | 0.00 | 0.00 | 0.00 | 52 | 1012.2 |
| 20260507154503 | 60 | 112 | 2.6 | 7.0 | 0.00 | 0.00 | 0.00 | 53 | 1012.2 |
| 20260507153603 | 58 | 116 | 4.3 | 8.7 | 0.00 | 0.00 | 0.00 | 55 | 1012.2 |
| 20260507152703 | 58 | 100 | 3.5 | 8.7 | 0.00 | 0.00 | 0.00 | 56 | 1012.3 |
| 20260507151803 | 58 | 94 | 4.3 | 9.6 | 0.00 | 0.00 | 0.00 | 53 | 1012.5 |
| 20260507150924 | 58 | 86 | 4.3 | 9.6 | 0.00 | 0.00 | 0.00 | 56 | 1012.5 |
| 20260507150003 | 58 | 100 | 4.3 | 10.4 | 0.00 | 0.00 | 0.00 | 55 | 1012.5 |
| 20260507145403 | 58 | 97 | 6.1 | 10.4 | 0.00 | 0.00 | 0.00 | 57 | 1012.6 |
| 20260507144503 | 58 | 106 | 5.2 | 11.3 | 0.00 | 0.00 | 0.00 | 58 | 1012.6 |
| 20260507143603 | 58 | 94 | 5.2 | 11.3 | 0.00 | 0.00 | 0.00 | 56 | 1012.6 |
| 20260507142703 | 58 | 94 | 5.2 | 10.4 | 0.00 | 0.00 | 0.00 | 57 | 1012.6 |
| 20260507141803 | 59 | 95 | 2.6 | 7.0 | 0.00 | 0.00 | 0.00 | 55 | 1012.8 |
| 20260507140903 | 57 | 100 | 4.3 | 11.3 | 0.00 | 0.00 | 0.00 | 58 | 1012.8 |
| 20260507140003 | 57 | 136 | 3.5 | 10.4 | 0.00 | 0.00 | 0.00 | 58 | 1012.9 |
| 20260507135424 | 58 | 149 | 3.5 | 7.8 | 0.00 | 0.00 | 0.00 | 55 | 1012.9 |
| 20260507134503 | 58 | 115 | 3.5 | 7.8 | 0.00 | 0.00 | 0.00 | 58 | 1012.9 |
| 20260507133603 | 58 | 124 | 3.5 | 8.7 | 0.00 | 0.00 | 0.00 | 54 | 1013.0 |
| 20260507132703 | 60 | 127 | 3.5 | 7.8 | 0.00 | 0.00 | 0.00 | 53 | 1013.1 |
| 20260507131803 | 59 | 150 | 4.3 | 8.7 | 0.00 | 0.00 | 0.00 | 55 | 1013.1 |
| 20260507130903 | 59 | 119 | 3.5 | 8.7 | 0.00 | 0.00 | 0.00 | 57 | 1013.1 |
| 20260507130003 | 58 | 112 | 4.3 | 8.7 | 0.00 | 0.00 | 0.00 | 59 | 1013.1 |
| 20260507125403 | 58 | 123 | 4.3 | 8.7 | 0.00 | 0.00 | 0.00 | 57 | 1013.2 |
| 20260507124524 | 57 | 108 | 4.3 | 8.7 | 0.00 | 0.00 | 0.00 | 59 | 1013.1 |
| 20260507123624 | 58 | 110 | 3.5 | 8.7 | 0.00 | 0.00 | 0.00 | 56 | 1013.2 |
| 20260507122705 | 57 | 107 | 4.3 | 9.6 | 0.00 | 0.00 | 0.00 | 58 | 1013.2 |
| 20260507121803 | 57 | 99 | 3.5 | 8.7 | 0.00 | 0.00 | 0.00 | 57 | 1013.2 |
| 20260507120903 | 56 | 108 | 5.2 | 10.4 | 0.00 | 0.00 | 0.00 | 57 | 1013.3 |
| 20260507120024 | 56 | 111 | 6.1 | 11.3 | 0.00 | 0.00 | 0.00 | 56 | 1013.3 |
| 20260507115403 | 56 | 127 | 4.3 | 11.3 | 0.00 | 0.00 | 0.00 | 58 | 1013.4 |
| 20260507114503 | 56 | 109 | 5.2 | 12.2 | 0.00 | 0.00 | 0.00 | 60 | 1013.4 |
| 20260507113603 | 56 | 115 | 6.1 | 10.4 | 0.00 | 0.00 | 0.00 | 61 | 1013.4 |
| 20260507112703 | 56 | 130 | 6.1 | 11.3 | 0.00 | 0.00 | 0.00 | 61 | 1013.6 |
| 20260507111803 | 58 | 131 | 4.3 | 11.3 | 0.00 | 0.00 | 0.00 | 56 | 1013.5 |
| 20260507110903 | 57 | 133 | 4.3 | 10.4 | 0.00 | 0.00 | 0.00 | 56 | 1013.5 |
| 20260507110003 | 57 | 135 | 3.5 | 10.4 | 0.00 | 0.00 | 0.00 | 59 | 1013.5 |
| 20260507105403 | 57 | 153 | 3.5 | 10.4 | 0.00 | 0.00 | 0.00 | 56 | 1013.5 |
| 20260507104503 | 56 | 124 | 2.6 | 6.1 | 0.00 | 0.00 | 0.00 | 62 | 1013.5 |
| 20260507103603 | 55 | 107 | 4.3 | 9.6 | 0.00 | 0.00 | 0.00 | 58 | 1013.5 |
| 20260507102703 | 57 | 141 | 2.6 | 7.8 | 0.00 | 0.00 | 0.00 | 57 | 1013.6 |
| 20260507101824 | 56 | 161 | 2.6 | 8.7 | 0.00 | 0.00 | 0.00 | 57 | 1013.6 |
| 20260507100903 | 58 | 144 | 2.6 | 7.0 | 0.00 | 0.00 | 0.00 | 57 | 1013.6 |
| 20260507100024 | 55 | 129 | 3.5 | 8.7 | 0.00 | 0.00 | 0.00 | 64 | 1013.6 |
| 20260507095403 | 54 | 120 | 4.3 | 9.6 | 0.00 | 0.00 | 0.00 | 63 | 1013.7 |
| 20260507094503 | 55 | 123 | 4.3 | 9.6 | 0.00 | 0.00 | 0.00 | 59 | 1013.8 |
| 20260507093603 | 55 | 133 | 3.5 | 10.4 | 0.00 | 0.00 | 0.00 | 65 | 1013.6 |
| 20260507092703 | 55 | 126 | 3.5 | 7.0 | 0.00 | 0.00 | 0.00 | 64 | 1013.6 |
| 20260507091803 | 55 | 180 | 2.6 | 7.0 | 0.00 | 0.00 | 0.00 | 69 | 1013.7 |
| 20260507090903 | 55 | 184 | 2.6 | 6.1 | 0.00 | 0.00 | 0.00 | 68 | 1013.7 |
| 20260507090004 | 55 | 194 | 2.6 | 5.2 | 0.00 | 0.00 | 0.00 | 67 | 1013.8 |
| 20260507085403 | 55 | 191 | 1.7 | 7.0 | 0.00 | 0.00 | 0.00 | 68 | 1013.7 |
| 20260507084503 | 54 | 155 | 2.6 | 7.8 | 0.00 | 0.00 | 0.00 | 71 | 1013.8 |
| 20260507083603 | 54 | 117 | 1.7 | 5.2 | 0.00 | 0.00 | 0.00 | 74 | 1013.7 |
| 20260507082703 | 53 | 117 | 1.7 | 5.2 | 0.00 | 0.00 | 0.00 | 77 | 1013.7 |
| 20260507081824 | 52 | 116 | 0.9 | 3.5 | 0.00 | 0.00 | 0.00 | 81 | 1013.7 |
| 20260507080903 | 50 | 115 | 1.7 | 3.5 | 0.00 | 0.00 | 0.00 | 84 | 1013.8 |
| 20260507080024 | 49 | 115 | 2.6 | 6.1 | 0.00 | 0.00 | 0.00 | 84 | 1013.8 |
| 20260507075403 | 50 | 113 | 2.6 | 7.0 | 0.00 | 0.00 | 0.00 | 84 | 1013.7 |
| 20260507074503 | 50 | 111 | 1.7 | 6.1 | 0.00 | 0.00 | 0.00 | 87 | 1013.7 |
| 20260507073603 | 49 | 112 | 2.6 | 7.0 | 0.00 | 0.00 | 0.00 | 88 | 1013.7 |
| 20260507072703 | 49 | 111 | 2.6 | 5.2 | 0.00 | 0.00 | 0.00 | 90 | 1013.6 |
| 20260507071824 | 48 | 111 | 1.7 | 5.2 | 0.00 | 0.00 | 0.00 | 91 | 1013.6 |
| 20260507070903 | 47 | 111 | 1.7 | 5.2 | 0.00 | 0.00 | 0.00 | 91 | 1013.7 |
| 20260507070024 | 47 | 107 | 1.7 | 3.5 | 0.00 | 0.00 | 0.00 | 91 | 1013.6 |
| 20260507065424 | 47 | 89 | 2.6 | 7.0 | 0.00 | 0.00 | 0.00 | 92 | 1013.6 |
| 20260507064524 | 47 | 20 | 0.9 | 3.5 | 0.00 | 0.00 | 0.00 | 91 | 1013.6 |
| 20260507063603 | 46 | 20 | 1.7 | 3.5 | 0.00 | 0.00 | 0.00 | 92 | 1013.5 |
| 20260507062703 | 46 | 20 | 0.9 | 3.5 | 0.00 | 0.00 | 0.00 | 92 | 1013.5 |
| 20260507061803 | 46 | 20 | 0.9 | 3.5 | 0.00 | 0.00 | 0.00 | 92 | 1013.3 |
| 20260507060903 | 46 | 20 | 0.9 | 4.3 | 0.00 | 0.00 | 0.00 | 92 | 1013.3 |